Location: Whitehorse
(60.7170°N, 135.0500°W)
Time: 11:18:18
(UTC-08:00)

Envisat - Pass Details

Date: 22 October 2019
Orbit: 764 x 766 km, 98.1° (Epoch: 20 November)

Event Time Altitude Azimuth Distance (km) Brightness Sun altitude
Rises 07:55:27 0° 20° (NNE) 3,248 6.4 -8.4°
Reaches altitude 10° 07:58:12 10° 34° (NE) 2,317 5.9 -8.0°
Maximum altitude 08:02:19 24° 88° (E) 1,553 5.7 -7.5°
Drops below altitude 10° 08:06:24 10° 142° (SE) 2,303 6.3 -7.0°
Sets 08:09:07 0° 156° (SSE) 3,224 6.8 -6.7°
